Content
SEND FEEDBACK

Daily
Averages
Monthly
Summary
United States of America

CAMP QUEZON, GUAM


Home > North America > United States > Guam
Elevation: 269 feet     Latitude: 13 28N     Longitude: 144 48E

WEATHER
 
SELECT A DAY
Number of Records: 209,340;   Date Range: 1/1/95 - 9/20/14
 
SHARE

PRINT THIS DATA

[ ← Previous Day ]
WEATHER ALMANAC - MARCH 23, 2014
[ Next Day → ]
[ °C ]   °F
Weather ElementAverageHighLow
Temperature83.2 °F88 °F (2:54 pm)78.1 °F (10:54 pm)
Dewpoint73.2 °F77 °F (10:38 am)71.6 °F (12:10 pm)
Humidity72.2 %90 % (10:54 pm)58 % (1:04 pm)
Barometer29.90 in29.96 in (10:38 am)29.84 in (2:54 pm)
Wind Speed13 mph19.6 mph (9:54 am)
Wind Gust27.6 mph (12:10 pm)
Weather ElementAverage
Visibility10 mi
Wind DirectionENE (71.3 °)

Weather ElementTotal
Precipitation0.02 in
Cooling Degree Days18.1 (Base 65)
Growing Degree Days33.1 (Base 50)
Averaged from 32 records on March 23, 2014
WEATHER CONDITIONS BREAKOUT
WIND DIRECTION BREAKOUT
WEATHER BY HOUR - MARCH 23, 2014
[ °C ]   °F
Local TimeTemperatureDewpointHumidityBarometerVisibilityWind DirectionWind SpeedGust SpeedPrecipitationEventsConditions
1:54 AM80.1 °F73.0 °F79 %29.88 in10.0 miENE (70°)10.4 mphClear
2:54 AM80.1 °F72.0 °F76 %29.88 in10.0 miENE (70°)11.5 mphPartly Cloudy
3:54 AM80.1 °F72.0 °F76 %29.88 in10.0 miENE (70°)12.7 mphPartly Cloudy
4:54 AM80.1 °F73.9 °F81 %29.88 in10.0 miEast (80°)13.8 mph20.7 mphMostly Cloudy
5:04 AM80.6 °F73.4 °F79 %29.90 in10.0 miEast (80°)11.5 mphScattered Clouds
5:54 AM80.1 °F73.0 °F79 %29.90 in10.0 miENE (70°)13.8 mphScattered Clouds
6:54 AM80.1 °F73.0 °F79 %29.92 in10.0 miEast (90°)11.5 mphClear
7:54 AM82.0 °F72.0 °F71 %29.94 in10.0 miENE (70°)16.1 mphClear
8:54 AM84.0 °F73.0 °F69 %29.95 in10.0 miENE (70°)17.3 mph24.2 mphScattered Clouds
9:54 AM84.9 °F72.0 °F65 %29.95 in10.0 miEast (80°)19.6 mphPartly Cloudy
10:38 AM82.4 °F77.0 °F84 %29.96 in10.0 miENE (70°)11.5 mph0.00 inMostly Cloudy
10:46 AM84.2 °F75.2 °F74 %29.96 in10.0 miEast (90°)13.8 mph0.00 inScattered Clouds
10:54 AM84.0 °F75.0 °F74 %29.94 in10.0 miEast (90°)15.0 mph0.00 inPartly Cloudy
11:49 AM87.8 °F73.4 °F62 %29.94 in10.0 miEast (90°)15.0 mph21.9 mphMostly Cloudy
11:54 AM86.0 °F73.0 °F65 %29.91 in10.0 miENE (70°)18.4 mph24.2 mphMostly Cloudy
12:01 PM84.2 °F73.4 °F70 %29.93 in10.0 miEast (80°)16.1 mph24.2 mphMostly Cloudy
12:10 PM86.0 °F71.6 °F62 %29.92 in10.0 miENE (70°)15.0 mph27.6 mphMostly Cloudy
12:54 PM86.0 °F73.0 °F65 %29.88 in10.0 miEast (100°)11.5 mphMostly Cloudy
1:04 PM87.8 °F71.6 °F58 %29.90 in10.0 miENE (70°)15.0 mph24.2 mphMostly Cloudy
1:25 PM86.0 °F73.4 °F66 %29.89 in10.0 miENE (70°)15.0 mphMostly Cloudy
1:50 PM86.0 °F71.6 °F62 %29.88 in10.0 miEast (80°)13.8 mphMostly Cloudy
1:54 PM86.0 °F72.0 °F63 %29.86 in10.0 miENE (60°)15.0 mph21.9 mphMostly Cloudy
2:54 PM88.0 °F73.0 °F61 %29.84 in10.0 miENE (60°)12.7 mphPartly Cloudy
3:54 PM86.0 °F72.0 °F63 %29.84 in10.0 miENE (60°)15.0 mph18.4 mphPartly Cloudy
4:54 PM86.0 °F72.0 °F63 %29.84 in10.0 miNE (50°)15.0 mphPartly Cloudy
5:54 PM82.9 °F73.0 °F72 %29.86 in10.0 miENE (60°)11.5 mphPartly Cloudy
6:54 PM82.0 °F73.0 °F74 %29.87 in10.0 miENE (60°)9.2 mphPartly Cloudy
7:54 PM81.0 °F73.9 °F79 %29.89 in10.0 miENE (60°)8.1 mphPartly Cloudy
8:54 PM80.1 °F73.0 °F79 %29.92 in10.0 miNE (50°)8.1 mphPartly Cloudy
9:54 PM79.0 °F73.9 °F84 %29.94 in10.0 miENE (60°)8.1 mph0.00 inMostly Cloudy
10:54 PM78.1 °F75.0 °F90 %29.94 in10.0 miENE (60°)6.9 mph0.02 inMostly Cloudy
11:54 PM80.1 °F75.0 °F85 %29.94 in10.0 miENE (70°)9.2 mphOvercast
Hourly data recorded from PGUM, located miles away from Camp Quezon, Guam







STORIES FROM OUR PARTNERS